period_start,C,m1,H,J0,J1,J2,J3,J4,J5,JA,JB,JC,JD,JJ,JK,JN,#
2016-10-27 00:01:57,0.07,4.20,0.00,20.56,26.07,29.54,14.80,48.90,1023.47,2034.33,1982.66,2256.02,2556.36,599.72,604.68,34.19,0000 0000 0000 0000 000000
2016-10-27 00:06:58,0.04,4.21,0.00,20.58,26.05,29.57,14.77,48.90,1023.47,2034.50,1982.02,2255.86,2555.93,599.95,604.95,34.24,0000 0000 0000 0000 000000
2016-10-27 00:11:59,0.11,4.21,0.00,20.56,26.05,29.49,14.77,48.33,1023.47,2034.77,1981.63,2255.22,2555.19,599.71,604.60,34.29,0000 0000 0000 0000 000000
2016-10-27 00:17:01,0.02,4.21,0.00,20.54,26.02,29.44,14.79,48.16,1023.46,2034.84,1981.02,2255.00,2554.97,599.17,604.24,34.34,0000 0000 0000 0000 000000
2016-10-27 00:22:02,0.03,4.21,0.00,20.51,26.02,29.33,14.88,48.91,1023.54,2034.97,1980.89,2254.99,2554.47,600.64,605.93,34.39,0000 0000 0000 0000 000000
2016-10-27 00:27:03,0.03,4.22,0.00,20.50,26.00,29.43,14.83,48.29,1023.71,2034.98,1980.25,2254.86,2554.03,599.63,604.85,34.44,0000 0000 0000 0000 000000
2016-10-27 00:32:05,0.02,4.22,0.00,20.49,26.00,29.41,14.84,48.35,1023.70,2034.98,1980.01,2254.50,2553.99,600.36,605.75,34.49,0000 0000 0000 0000 000000
2016-10-27 00:37:06,0.01,4.22,0.00,20.46,25.99,29.43,14.83,48.12,1023.82,2034.97,1980.00,2254.28,2553.97,599.85,605.45,34.54,0000 0000 0000 0000 000000
2016-10-27 00:42:07,0.05,4.22,0.00,20.46,25.97,29.44,14.98,48.41,1023.92,2034.98,1979.64,2254.05,2553.55,600.13,605.64,34.59,0000 0000 0000 0000 000000
2016-10-27 00:47:09,0.02,4.22,0.00,20.44,25.97,29.45,14.87,48.32,1023.93,2034.99,1979.00,2253.99,2553.01,599.93,605.69,34.64,0000 0000 0000 0000 000000
2016-10-27 00:52:10,0.07,4.22,0.00,20.48,25.95,29.45,14.84,48.17,1023.94,2034.99,1978.41,2253.55,2552.60,600.39,605.77,34.69,0000 0000 0000 0000 000000
2016-10-27 00:57:12,0.03,4.23,0.00,20.47,25.95,29.40,14.83,48.48,1023.94,2034.99,1977.93,2253.03,2552.01,599.98,605.27,34.74,0000 0000 0000 0000 000000
2016-10-27 01:02:13,0.07,4.23,0.00,20.45,25.94,29.40,14.87,48.56,1023.94,2034.99,1977.07,2252.71,2551.27,600.17,605.71,34.80,0000 0000 0000 0000 000000
2016-10-27 01:07:14,0.07,4.23,0.00,20.42,25.92,29.39,14.83,47.98,1023.94,2034.99,1976.15,2252.02,2550.43,599.89,605.44,34.85,0000 0000 0000 0000 000000
2016-10-27 01:12:15,0.03,4.24,0.00,20.43,25.92,29.40,14.93,48.52,1023.96,2034.99,1975.74,2251.75,2549.95,600.86,606.24,34.90,0000 0000 0000 0000 000000
2016-10-27 01:17:16,0.06,4.24,0.00,20.41,25.91,29.38,14.86,48.47,1024.01,2034.99,1975.02,2251.04,2549.14,599.64,605.34,34.95,0000 0000 0000 0000 000000
2016-10-27 01:22:18,0.03,4.24,0.00,20.43,25.90,29.36,14.74,48.11,1024.03,2034.99,1974.36,2250.99,2548.96,599.25,604.71,35.00,0000 0000 0000 0000 000000
2016-10-27 01:27:18,0.05,4.24,0.00,20.41,25.89,29.31,14.91,48.98,1024.03,2034.99,1974.01,2250.50,2548.24,600.42,606.10,35.05,0000 0000 0000 0000 000000
2016-10-27 01:32:20,0.03,4.25,0.00,20.41,25.87,29.32,14.95,48.99,1024.13,2034.99,1973.56,2250.02,2547.98,600.13,605.93,35.10,0000 0000 0000 0000 000000
2016-10-27 01:37:21,0.03,4.25,0.00,20.37,25.87,29.31,14.98,48.91,1024.39,2034.99,1973.01,2249.99,2547.40,600.20,606.26,35.15,0000 0000 0000 0000 000000
2016-10-27 01:42:23,0.07,4.25,0.00,20.35,25.85,29.28,14.90,48.92,1024.36,2034.99,1972.30,2249.34,2546.95,600.51,606.51,35.20,0000 0000 0000 0000 000000
2016-10-27 01:47:24,0.03,4.25,0.00,20.36,25.85,29.23,14.91,48.66,1024.39,2035.01,1971.97,2249.01,2546.15,600.55,606.45,35.25,0000 0000 0000 0000 000000
2016-10-27 01:52:26,0.03,4.26,0.00,20.30,25.82,29.26,14.90,48.68,1024.37,2035.02,1971.20,2248.95,2545.99,600.58,606.67,35.30,0000 0000 0000 0000 000000
2016-10-27 01:57:27,0.07,4.26,0.00,20.32,25.82,29.24,14.90,49.03,1024.33,2035.04,1970.76,2248.35,2545.35,600.26,606.23,35.35,0000 0000 0000 0000 000000
2016-10-27 02:02:29,0.03,4.26,0.00,20.35,25.80,29.29,14.82,48.94,1024.38,2035.06,1970.04,2248.01,2544.93,599.97,605.98,35.40,0000 0000 0000 0000 000000
2016-10-27 02:07:30,0.06,4.26,0.00,20.33,25.80,29.16,14.81,48.97,1024.36,2035.06,1969.59,2247.78,2544.16,599.75,605.76,35.45,0000 0000 0000 0000 000000
2016-10-27 02:12:31,0.05,4.27,0.00,20.30,25.78,29.19,14.90,49.09,1024.37,2035.16,1969.00,2247.07,2543.94,600.17,606.26,35.50,0000 0000 0000 0000 000000
2016-10-27 02:17:33,0.07,4.27,0.00,20.30,25.77,29.21,14.96,49.09,1024.34,2035.32,1968.37,2246.99,2543.14,600.36,606.32,35.55,0000 0000 0000 0000 000000
2016-10-27 02:22:34,0.08,4.27,0.00,20.30,25.76,29.24,14.81,48.84,1024.40,2035.52,1967.90,2246.52,2542.64,600.06,606.19,35.60,0000 0000 0000 0000 000000
2016-10-27 02:27:35,0.06,4.28,0.00,20.36,25.75,29.16,14.87,49.40,1024.33,2035.68,1967.08,2246.01,2542.01,599.80,605.76,35.65,0000 0000 0000 0000 000000
2016-10-27 02:32:36,0.08,4.28,0.00,20.33,25.74,29.10,14.98,49.23,1024.33,2035.89,1966.57,2245.86,2541.55,600.43,606.30,35.70,0000 0000 0000 0000 000000
2016-10-27 02:37:37,0.06,4.29,0.00,20.29,25.72,29.06,14.92,49.08,1024.40,2035.95,1965.79,2245.15,2540.97,599.68,605.84,35.75,0000 0000 0000 0000 000000
2016-10-27 02:42:39,0.05,4.29,0.00,20.31,25.72,29.16,14.83,48.74,1024.42,2035.98,1965.02,2244.87,2540.16,599.63,605.74,35.80,0000 0000 0000 0000 000000
2016-10-27 02:47:40,0.08,4.29,0.00,20.31,25.72,29.07,14.72,48.37,1024.42,2035.98,1964.26,2244.10,2539.67,599.71,605.81,35.86,0000 0000 0000 0000 000000
2016-10-27 02:52:41,0.01,4.29,0.00,20.31,25.71,29.11,14.98,49.21,1024.41,2035.98,1963.98,2243.98,2539.01,600.61,606.71,35.91,0000 0000 0000 0000 000000
2016-10-27 02:57:43,0.06,4.30,0.00,20.30,25.70,29.14,14.96,48.96,1024.43,2035.98,1963.41,2243.73,2538.56,600.26,606.40,35.96,0000 0000 0000 0000 000000
2016-10-27 03:02:44,0.03,4.30,0.00,20.30,25.70,29.11,14.90,49.12,1024.43,2035.98,1962.99,2243.07,2538.02,600.19,606.40,36.01,0000 0000 0000 0000 000000
2016-10-27 03:07:45,0.04,4.30,0.00,20.35,25.70,29.13,14.95,49.31,1024.43,2035.99,1962.36,2243.00,2537.75,599.75,605.82,36.06,0000 0000 0000 0000 000000
2016-10-27 03:12:47,0.04,4.30,0.00,20.33,25.70,29.16,14.85,49.06,1024.43,2035.99,1961.99,2242.70,2537.05,599.98,605.99,36.11,0000 0000 0000 0000 000000
2016-10-27 03:17:48,0.05,4.31,0.00,20.31,25.69,29.13,14.90,48.88,1024.43,2035.98,1961.57,2242.07,2536.77,600.03,606.15,36.16,0000 0000 0000 0000 000000
2016-10-27 03:22:49,0.02,4.31,0.00,20.30,25.68,29.13,14.81,48.97,1024.43,2035.99,1961.01,2242.00,2536.04,599.64,605.72,36.21,0000 0000 0000 0000 000000
2016-10-27 03:27:51,0.10,4.31,0.00,20.29,25.68,29.09,15.04,49.17,1024.43,2035.99,1960.19,2241.26,2535.27,600.08,606.32,36.26,0000 0000 0000 0000 000000
2016-10-27 03:32:52,0.05,4.32,0.00,20.30,25.67,29.12,14.90,49.03,1024.43,2035.98,1959.29,2240.97,2534.54,599.96,606.05,36.31,0000 0000 0000 0000 000000
2016-10-27 03:37:54,0.05,4.32,0.00,20.27,25.67,29.02,14.90,48.85,1024.43,2035.99,1958.91,2240.28,2534.01,600.24,606.45,36.36,0000 0000 0000 0000 000000
2016-10-27 03:42:55,0.05,4.32,0.00,20.27,25.67,29.16,15.03,49.12,1024.43,2035.98,1958.10,2240.00,2533.50,600.21,606.42,36.41,0000 0000 0000 0000 000000
2016-10-27 03:47:56,0.01,4.32,0.00,20.33,25.67,29.13,14.82,49.00,1024.41,2035.98,1957.87,2239.95,2533.01,600.10,606.08,36.46,0000 0000 0000 0000 000000
2016-10-27 03:52:57,0.08,4.33,0.00,20.35,25.67,29.10,14.93,49.19,1024.40,2035.99,1957.07,2239.26,2532.37,600.17,606.30,36.51,0000 0000 0000 0000 000000
2016-10-27 03:57:58,0.04,4.33,0.00,20.29,25.67,29.09,14.83,48.73,1024.41,2035.99,1956.47,2238.99,2531.83,600.02,606.00,36.56,0000 0000 0000 0000 000000
2016-10-27 04:02:59,0.22,4.34,0.00,20.30,25.67,29.12,14.81,48.30,1024.43,2035.99,1954.57,2237.59,2529.92,600.02,606.14,36.61,0000 0000 0000 0000 000000
2016-10-27 04:08:01,0.09,4.34,0.00,20.32,25.67,29.12,15.01,49.41,1024.37,2035.99,1953.11,2236.50,2528.73,601.00,607.11,36.66,0000 0000 0000 0000 000000
2016-10-27 04:13:02,0.05,4.35,0.00,20.34,25.67,29.14,14.82,48.72,1024.26,2035.99,1952.47,2236.01,2528.00,599.68,605.79,36.71,0000 0000 0000 0000 000000
2016-10-27 04:18:04,0.06,4.35,0.00,20.32,25.67,29.15,14.83,48.69,1024.29,2035.98,1951.93,2235.51,2527.19,599.99,606.10,36.76,0000 0000 0000 0000 000000
2016-10-27 04:23:05,0.06,4.35,0.00,20.34,25.67,29.10,14.96,48.80,1024.41,2035.99,1951.14,2235.01,2526.63,600.33,606.32,36.81,0000 0000 0000 0000 000000
2016-10-27 04:28:06,0.02,4.36,0.00,20.34,25.67,29.16,14.95,49.23,1024.43,2035.99,1950.81,2234.90,2526.01,600.35,606.45,36.86,0000 0000 0000 0000 000000
2016-10-27 04:33:07,0.08,4.36,0.00,20.32,25.66,29.19,14.79,48.63,1024.42,2035.98,1950.03,2234.13,2525.34,599.95,605.98,36.91,0000 0000 0000 0000 000000
2016-10-27 04:38:09,0.05,4.36,0.00,20.31,25.65,29.12,14.83,48.42,1024.43,2035.98,1949.17,2233.85,2524.71,600.11,606.23,36.96,0000 0000 0000 0000 000000
2016-10-27 04:43:10,0.07,4.37,0.00,20.30,25.65,29.10,14.77,48.39,1024.43,2035.99,1948.63,2233.11,2524.02,599.76,605.88,37.02,0000 0000 0000 0000 000000
2016-10-27 04:48:11,0.03,4.37,0.00,20.29,25.65,29.04,14.88,48.72,1024.44,2035.99,1948.00,2233.00,2523.54,599.64,605.82,37.07,0000 0000 0000 0000 000000
2016-10-27 04:53:12,0.07,4.37,0.00,20.30,25.65,29.10,14.93,48.53,1024.45,2035.99,1947.36,2232.56,2523.00,599.95,606.32,37.12,0000 0000 0000 0000 000000
2016-10-27 04:58:13,0.05,4.37,0.00,20.33,25.65,29.04,14.84,48.46,1024.45,2035.99,1946.65,2232.01,2522.28,600.04,606.09,37.17,0000 0000 0000 0000 000000
2016-10-27 05:03:14,0.16,4.38,0.00,20.29,25.65,29.05,14.87,48.62,1024.49,2036.00,1945.31,2230.76,2520.79,600.10,606.38,37.22,0000 0000 0000 0000 000000
2016-10-27 05:08:16,0.93,4.41,0.00,20.28,25.65,29.09,14.85,48.94,1024.57,2036.00,1938.11,2224.09,2513.38,600.00,606.27,37.27,0000 0000 0000 0000 000000
2016-10-27 05:13:17,0.82,4.46,0.00,20.26,25.64,29.11,14.79,48.27,1024.80,2036.00,1930.05,2216.85,2505.37,599.77,606.30,37.32,0000 0000 0000 0000 000000
2016-10-27 05:18:18,0.41,4.49,0.00,20.28,25.64,29.13,14.82,48.75,1024.81,2035.99,1924.58,2212.14,2500.06,600.12,606.92,37.37,0000 0000 0000 0000 000000
2016-10-27 05:23:20,0.08,4.50,0.00,20.28,25.63,29.05,14.85,48.52,1024.86,2035.99,1923.14,2211.05,2498.89,599.75,606.09,37.42,0000 0000 0000 0000 000000
2016-10-27 05:28:21,0.13,4.50,0.00,20.28,25.62,29.09,14.88,48.32,1024.88,2035.99,1921.86,2210.14,2497.74,599.65,606.09,37.47,0000 0000 0000 0000 000000
2016-10-27 05:33:22,0.15,4.51,0.00,20.22,25.62,29.10,14.88,48.93,1024.92,2035.99,1920.39,2208.91,2496.29,599.89,606.41,37.52,0000 0000 0000 0000 000000
2016-10-27 05:38:24,0.10,4.52,0.00,20.21,25.62,29.15,14.96,49.27,1024.92,2035.99,1919.36,2207.99,2495.20,600.26,606.82,37.57,0000 0000 0000 0000 000000
2016-10-27 05:43:25,0.24,4.52,0.00,20.21,25.62,29.07,14.92,48.24,1024.92,2035.99,1917.08,2206.30,2493.28,600.03,606.64,37.62,0000 0000 0000 0000 000000
2016-10-27 05:48:26,0.67,4.55,0.00,20.21,25.62,29.08,14.92,48.66,1024.93,2035.99,1910.94,2201.20,2487.66,600.68,607.26,37.67,0000 0000 0000 0000 000000
2016-10-27 05:53:28,0.07,4.57,0.00,20.21,25.62,29.04,14.89,48.82,1025.04,2035.99,1909.00,2199.86,2485.94,600.52,607.13,37.72,0000 0000 0000 0000 000000
2016-10-27 05:58:29,0.09,4.57,0.00,20.22,25.62,29.12,14.84,48.30,1025.16,2035.99,1908.12,2199.06,2485.09,599.45,606.16,37.77,0000 0000 0000 0000 000000
2016-10-27 06:03:30,0.07,4.57,0.00,20.23,25.61,29.11,14.87,48.33,1025.22,2036.00,1907.47,2198.77,2484.59,600.01,606.68,37.82,0000 0000 0000 0000 000000
2016-10-27 06:08:31,0.08,4.58,0.00,20.19,25.60,29.04,14.80,47.90,1025.37,2036.00,1906.47,2198.02,2483.79,599.34,606.14,37.87,0000 0000 0000 0000 000000
2016-10-27 06:13:32,0.10,4.58,0.00,20.18,25.60,29.10,14.84,48.22,1025.33,2036.01,1905.46,2197.30,2482.83,600.54,607.66,37.92,0000 0000 0000 0000 000000
2016-10-27 06:18:34,0.07,4.59,0.00,20.17,25.59,29.02,14.87,48.87,1025.33,2036.03,1904.61,2196.72,2481.97,599.11,606.09,37.97,0000 0000 0000 0000 000000
2016-10-27 06:23:36,0.11,4.59,0.00,20.16,25.57,28.93,14.87,48.48,1025.38,2036.09,1903.71,2195.92,2480.98,600.28,607.27,38.02,0000 0000 0000 0000 000000
2016-10-27 06:28:37,0.10,4.60,0.00,20.15,25.57,29.05,14.89,48.17,1025.40,2036.27,1902.88,2195.08,2480.05,599.67,606.40,38.07,0000 0000 0000 0000 000000
2016-10-27 06:33:38,0.12,4.60,0.00,20.12,25.56,29.02,14.92,49.02,1025.39,2036.42,1901.90,2194.45,2479.09,599.75,606.73,38.12,0000 0000 0000 0000 000000
2016-10-27 06:38:39,0.09,4.61,0.00,20.09,25.55,29.05,14.91,48.93,1025.40,2036.53,1901.04,2193.74,2478.06,600.53,607.65,38.17,0000 0000 0000 0000 000000
2016-10-27 06:43:40,0.08,4.61,0.00,20.09,25.55,29.02,14.79,48.23,1025.40,2036.54,1900.36,2193.04,2477.35,599.75,606.75,38.22,0000 0000 0000 0000 000000
2016-10-27 06:48:42,0.10,4.62,0.00,20.07,25.53,28.99,14.87,49.00,1025.40,2036.57,1899.50,2192.38,2476.35,600.37,607.62,38.27,0000 0000 0000 0000 000000
2016-10-27 06:53:43,0.06,4.62,0.00,20.05,25.52,28.94,14.90,48.93,1025.40,2036.71,1898.77,2191.95,2475.54,599.81,607.09,38.32,0000 0000 0000 0000 000000
2016-10-27 06:58:45,0.09,4.63,0.00,20.05,25.51,28.90,14.90,48.42,1025.40,2036.74,1897.98,2191.16,2474.63,599.67,606.90,38.37,0000 0000 0000 0000 000000
2016-10-27 07:03:46,0.07,4.63,0.00,20.06,25.50,28.96,14.99,49.30,1025.40,2036.84,1897.10,2190.80,2473.84,600.50,607.73,38.42,0000 0000 0000 0000 000000
2016-10-27 07:08:48,0.09,4.64,0.00,20.06,25.50,28.94,14.90,48.95,1025.40,2036.87,1896.38,2190.05,2473.03,600.01,607.04,38.47,0000 0000 0000 0000 000000
2016-10-27 07:13:49,0.03,4.64,0.00,20.00,25.47,28.90,14.76,48.50,1025.40,2036.91,1895.98,2189.96,2472.37,599.61,606.83,38.53,0000 0000 0000 0000 000000
2016-10-27 07:18:50,0.08,4.64,0.00,20.01,25.47,28.88,14.83,48.20,1025.40,2036.89,1895.20,2189.25,2471.93,599.72,607.12,38.58,0000 0000 0000 0000 000000
2016-10-27 07:23:51,0.05,4.65,0.00,19.94,25.46,28.91,14.92,49.09,1025.40,2036.94,1894.64,2188.96,2471.08,600.03,607.56,38.63,0000 0000 0000 0000 000000
2016-10-27 07:28:53,0.10,4.65,0.00,19.94,25.45,28.95,14.84,48.84,1025.40,2036.91,1893.73,2188.13,2470.13,599.70,607.50,38.68,0000 0000 0000 0000 000000
2016-10-27 07:33:54,0.10,4.65,0.00,19.97,25.44,29.00,14.92,49.17,1025.40,2036.95,1892.78,2187.53,2469.17,600.77,608.13,38.73,0000 0000 0000 0000 000000
2016-10-27 07:38:55,0.06,4.66,0.00,19.98,25.42,28.94,14.89,48.22,1025.40,2036.97,1891.92,2186.96,2468.19,599.58,606.87,38.78,0000 0000 0000 0000 000000
2016-10-27 07:43:56,0.10,4.66,0.00,19.96,25.42,28.88,14.90,49.14,1025.40,2036.98,1891.06,2186.18,2467.34,600.31,607.37,38.83,0000 0000 0000 0000 000000
2016-10-27 07:48:58,0.05,4.67,0.00,19.93,25.40,28.82,14.90,48.56,1025.40,2036.99,1890.35,2185.92,2466.71,600.01,607.50,38.88,0000 0000 0000 0000 000000
2016-10-27 07:53:59,0.06,4.67,0.00,19.91,25.40,28.80,14.83,48.55,1025.42,2036.99,1889.80,2185.19,2466.01,600.15,607.78,38.93,0000 0000 0000 0000 000000
2016-10-27 07:59:00,0.06,4.67,0.00,19.89,25.38,28.82,14.84,48.84,1025.42,2036.99,1888.94,2184.80,2465.20,599.25,606.70,38.98,0000 0000 0000 0000 000000
2016-10-27 08:04:01,0.08,4.68,0.00,19.87,25.37,28.84,14.86,48.44,1025.42,2036.99,1888.09,2184.06,2464.37,599.55,607.29,39.03,0000 0000 0000 0000 000000
2016-10-27 08:09:03,0.01,4.68,0.00,19.88,25.37,28.81,14.86,48.84,1025.42,2036.99,1887.95,2183.98,2464.00,599.87,607.29,39.08,0000 0000 0000 0000 000000
2016-10-27 08:14:04,0.08,4.68,0.00,19.90,25.35,28.81,15.00,48.88,1025.41,2036.99,1887.20,2183.52,2463.33,599.93,607.57,39.13,0000 0000 0000 0000 000000
2016-10-27 08:19:05,0.01,4.69,0.00,19.90,25.35,28.81,14.96,48.45,1025.43,2036.99,1886.99,2183.04,2462.99,600.18,607.86,39.18,0000 0000 0000 0000 000000
2016-10-27 08:24:06,0.02,4.69,0.00,19.87,25.33,28.76,15.06,49.03,1025.45,2036.99,1886.61,2183.00,2462.91,600.86,608.31,39.23,0000 0000 0000 0000 000000
2016-10-27 08:29:07,0.03,4.69,0.00,19.85,25.32,28.75,14.89,48.72,1025.45,2036.99,1886.03,2182.99,2462.20,600.08,607.80,39.28,0000 0000 0000 0000 000000
2016-10-27 08:34:09,0.05,4.69,0.00,19.86,25.32,28.77,14.90,48.78,1025.43,2036.99,1885.71,2182.47,2461.96,599.86,607.46,39.33,0000 0000 0000 0000 000000
2016-10-27 08:39:10,0.06,4.69,0.00,19.88,25.30,28.79,14.89,48.77,1025.41,2037.00,1884.95,2182.00,2461.15,599.98,607.46,39.38,0000 0000 0000 0000 000000
2016-10-27 08:44:12,0.07,4.70,0.00,19.90,25.30,28.72,14.93,48.90,1025.41,2037.00,1884.12,2181.65,2460.63,599.42,607.04,39.43,0000 0000 0000 0000 000000
2016-10-27 08:49:13,0.03,4.70,0.00,19.85,25.29,28.74,14.96,48.90,1025.40,2037.00,1883.99,2181.12,2460.06,599.71,607.07,39.48,0000 0000 0000 0000 000000
2016-10-27 08:54:14,0.03,4.70,0.00,19.82,25.27,28.75,14.94,48.65,1025.40,2037.03,1883.37,2181.00,2459.99,600.11,607.67,39.53,0000 0000 0000 0000 000000
2016-10-27 08:59:15,0.04,4.70,0.00,19.76,25.27,28.71,14.98,48.78,1025.40,2037.10,1883.00,2180.98,2459.36,600.25,608.04,39.58,0000 0000 0000 0000 000000
2016-10-27 09:04:17,0.05,4.71,0.00,19.77,25.27,28.63,14.92,48.74,1025.40,2037.09,1882.67,2180.40,2459.00,599.98,607.72,39.63,0000 0000 0000 0000 000000
2016-10-27 09:09:18,0.04,4.71,0.00,19.78,25.25,28.73,14.94,48.77,1025.40,2037.07,1882.03,2180.01,2458.52,599.58,607.39,39.68,0000 0000 0000 0000 000000
2016-10-27 09:14:20,0.05,4.71,0.00,19.72,25.25,28.64,14.86,48.66,1025.40,2037.10,1881.54,2179.81,2457.96,599.79,607.74,39.73,0000 0000 0000 0000 000000
2016-10-27 09:19:21,0.11,4.72,0.00,19.76,25.24,28.63,15.03,49.05,1025.41,2037.32,1880.67,2179.05,2457.11,600.61,608.43,39.78,0000 0000 0000 0000 000000
2016-10-27 09:24:23,0.11,4.72,0.00,19.77,25.22,28.70,14.90,48.77,1025.41,2037.74,1880.01,2178.80,2456.35,599.91,607.59,39.83,0000 0000 0000 0000 000000
2016-10-27 09:29:24,0.07,4.73,0.00,19.72,25.22,28.65,14.76,48.27,1025.41,2037.82,1879.34,2178.05,2455.67,599.40,607.22,39.88,0000 0000 0000 0000 000000
2016-10-27 09:34:25,0.04,4.73,0.00,19.71,25.21,28.72,14.88,48.97,1025.42,2037.90,1878.88,2177.82,2455.00,600.08,607.94,39.93,0000 0000 0000 0000 000000
2016-10-27 09:39:26,0.08,4.73,0.00,19.71,25.20,28.68,14.95,49.40,1025.43,2037.86,1878.09,2177.08,2454.20,600.26,608.01,39.98,0000 0000 0000 0000 000000
2016-10-27 09:44:28,0.07,4.74,0.00,19.71,25.20,28.64,14.88,48.68,1025.43,2037.94,1877.50,2176.86,2453.65,599.53,607.41,40.04,0000 0000 0000 0000 000000
2016-10-27 09:49:29,0.07,4.74,0.00,19.73,25.18,28.70,14.98,48.98,1025.43,2037.96,1876.71,2176.09,2452.87,600.02,607.85,40.09,0000 0000 0000 0000 000000
2016-10-27 09:54:30,0.07,4.74,0.00,19.70,25.17,28.62,14.92,48.99,1025.44,2037.97,1875.90,2175.68,2452.01,599.74,607.75,40.14,0000 0000 0000 0000 000000
2016-10-27 09:59:32,0.07,4.75,0.00,19.68,25.17,28.67,14.94,49.39,1025.47,2037.97,1875.07,2175.03,2451.17,600.05,608.00,40.19,0000 0000 0000 0000 000000
2016-10-27 10:04:33,0.03,4.75,0.00,19.66,25.15,28.63,14.87,49.04,1025.64,2037.98,1874.51,2175.00,2450.87,600.20,608.33,40.24,0000 0000 0000 0000 000000
2016-10-27 10:09:34,0.05,4.75,0.00,19.67,25.15,28.65,15.00,49.33,1025.63,2037.99,1874.01,2174.66,2450.09,600.02,608.16,40.29,0000 0000 0000 0000 000000
2016-10-27 10:14:36,0.03,4.76,0.00,19.68,25.14,28.69,14.97,49.46,1025.83,2037.99,1873.80,2174.08,2449.97,600.22,608.35,40.34,0000 0000 0000 0000 000000
2016-10-27 10:19:37,0.05,4.76,0.00,19.65,25.12,28.66,14.92,49.23,1025.73,2037.99,1873.06,2173.99,2449.22,599.40,607.76,40.39,0000 0000 0000 0000 000000
2016-10-27 10:24:38,0.06,4.76,0.00,19.62,25.12,28.60,14.88,49.10,1025.55,2037.99,1872.55,2173.65,2448.89,599.24,607.38,40.44,0000 0000 0000 0000 000000
2016-10-27 10:29:39,0.05,4.76,0.00,19.65,25.12,28.59,14.96,49.22,1025.75,2037.99,1871.99,2173.07,2448.11,600.21,608.43,40.49,0000 0000 0000 0000 000000
2016-10-27 10:34:41,0.06,4.77,0.00,19.60,25.10,28.61,14.94,49.20,1025.65,2037.99,1871.20,2172.88,2447.60,600.09,608.33,40.54,0000 0000 0000 0000 000000
2016-10-27 10:39:42,0.04,4.77,0.00,19.59,25.10,28.60,14.92,49.10,1025.51,2038.00,1870.96,2172.11,2447.01,599.73,608.05,40.59,0000 0000 0000 0000 000000
2016-10-27 10:44:43,0.05,4.77,0.00,19.54,25.10,28.56,14.90,49.02,1025.43,2038.01,1870.17,2172.00,2446.64,599.97,608.28,40.64,0000 0000 0000 0000 000000
2016-10-27 10:49:44,0.02,4.77,0.00,19.50,25.08,28.54,14.92,48.82,1025.51,2038.03,1869.98,2171.95,2446.02,600.05,608.49,40.69,0000 0000 0000 0000 000000
2016-10-27 10:54:46,0.08,4.78,0.00,19.55,25.07,28.49,14.94,48.89,1025.53,2038.01,1869.40,2171.37,2445.69,599.98,608.57,40.74,0000 0000 0000 0000 000000
2016-10-27 10:59:47,0.02,4.78,0.00,19.56,25.07,28.55,14.86,49.27,1025.80,2038.02,1868.93,2171.01,2445.03,599.62,608.19,40.79,0000 0000 0000 0000 000000
2016-10-27 11:04:49,0.08,4.78,0.00,19.59,25.07,28.55,14.89,49.12,1025.86,2038.03,1868.09,2170.70,2444.45,599.86,608.27,40.84,0000 0000 0000 0000 000000
2016-10-27 11:09:50,0.07,4.79,0.00,19.56,25.05,28.57,14.85,49.48,1025.65,2038.12,1867.44,2170.03,2443.87,599.90,608.38,40.89,0000 0000 0000 0000 000000
2016-10-27 11:14:51,0.03,4.79,0.00,19.56,25.05,28.60,15.02,49.54,1025.55,2038.11,1866.90,2169.85,2443.05,600.24,608.60,40.94,0000 0000 0000 0000 000000
2016-10-27 11:19:52,0.13,4.80,0.00,19.53,25.05,28.54,15.01,49.52,1025.42,2038.37,1866.06,2169.07,2442.31,600.48,608.78,40.99,0000 0000 0000 0000 000000
2016-10-27 11:24:54,0.04,4.80,0.00,19.56,25.03,28.47,15.10,49.39,1025.42,2038.67,1865.62,2168.99,2441.99,600.75,609.01,41.04,0000 0000 0000 0000 000000
2016-10-27 11:29:55,0.07,4.80,0.00,19.57,25.02,28.46,14.98,49.42,1025.44,2038.79,1865.04,2168.79,2441.36,600.05,608.31,41.09,0000 0000 0000 0000 000000
2016-10-27 11:34:56,0.04,4.81,0.00,19.53,25.02,28.41,14.88,49.08,1025.42,2038.88,1864.89,2168.12,2441.00,599.92,608.31,41.14,0000 0000 0000 0000 000000
2016-10-27 11:39:57,0.05,4.81,0.00,19.51,25.01,28.51,14.89,48.88,1025.41,2038.82,1864.12,2168.00,2440.41,599.59,607.62,41.20,0000 0000 0000 0000 000000
2016-10-27 11:44:59,0.02,4.81,0.00,19.52,25.00,28.53,14.87,49.19,1025.41,2038.91,1863.82,2167.91,2439.99,599.95,608.30,41.25,0000 0000 0000 0000 000000
2016-10-27 11:50:00,0.09,4.81,0.00,19.50,25.00,28.53,14.95,49.05,1025.39,2038.95,1863.03,2167.15,2439.46,599.26,607.80,41.30,0000 0000 0000 0000 000000
2016-10-27 11:55:01,0.07,4.82,0.00,19.50,25.00,28.49,14.98,49.36,1025.27,2038.97,1862.22,2166.78,2438.71,600.16,608.42,41.35,0000 0000 0000 0000 000000
2016-10-27 12:00:03,0.07,4.82,0.00,19.47,24.99,28.43,14.91,49.21,1025.37,2038.99,1861.52,2166.04,2437.97,600.27,608.73,41.40,0000 0000 0000 0000 000000
2016-10-27 12:05:04,0.04,4.82,0.00,19.48,24.97,28.38,14.94,48.83,1025.40,2038.99,1860.94,2165.84,2437.15,599.89,608.31,41.45,0000 0000 0000 0000 000000
2016-10-27 12:10:05,0.09,4.83,0.00,19.47,24.97,28.45,14.99,49.16,1025.40,2038.98,1860.11,2165.09,2436.51,600.39,608.97,41.50,0000 0000 0000 0000 000000
2016-10-27 12:15:07,0.04,4.83,0.00,19.50,24.97,28.46,14.99,49.36,1025.40,2038.99,1859.49,2164.94,2435.92,600.34,608.50,41.55,0000 0000 0000 0000 000000
2016-10-27 12:20:08,0.07,4.84,0.00,19.46,24.97,28.43,14.97,49.61,1025.40,2038.99,1858.95,2164.19,2435.14,599.87,608.19,41.60,0000 0000 0000 0000 000000
2016-10-27 12:25:10,0.06,4.84,0.00,19.43,24.96,28.42,14.88,49.19,1025.40,2038.99,1858.11,2163.98,2434.52,599.95,608.57,41.65,0000 0000 0000 0000 000000
2016-10-27 12:30:11,0.06,4.84,0.00,19.43,24.95,28.45,14.86,48.98,1025.40,2038.99,1857.68,2163.43,2434.01,599.60,608.16,41.70,0000 0000 0000 0000 000000
2016-10-27 12:35:12,0.05,4.84,0.00,19.41,24.95,28.43,15.03,49.33,1025.40,2038.99,1857.03,2163.02,2433.55,600.67,609.17,41.75,0000 0000 0000 0000 000000
2016-10-27 12:40:14,0.05,4.85,0.00,19.41,24.94,28.42,14.94,49.56,1025.40,2038.99,1856.38,2162.83,2432.91,599.83,608.30,41.80,0000 0000 0000 0000 000000
2016-10-27 12:45:15,0.08,4.85,0.00,19.41,24.92,28.43,14.96,49.37,1025.40,2038.99,1855.76,2162.07,2432.08,600.24,608.64,41.85,0000 0000 0000 0000 000000
2016-10-27 12:50:16,0.06,4.85,0.00,19.39,24.92,28.40,15.01,49.33,1025.39,2039.00,1855.04,2161.77,2431.41,600.18,608.80,41.90,0000 0000 0000 0000 000000
2016-10-27 12:55:18,0.06,4.86,0.00,19.35,24.92,28.47,14.81,49.01,1025.37,2039.01,1854.60,2161.05,2430.92,599.77,608.39,41.95,0000 0000 0000 0000 000000